DECAYED

STARLINK-1708, 46580 (Decayed)

Orbit data source: Space-Track

STARLINK-1708, 46580 was a payload satellite owned by SpaceX/Seattle (US) in LEO that was launched on Tue, 06 Oct 2020 UTC via an FALCON 9 launch vehicle from the Air Force Eastern Test Range (AFETR). Payload-class satellites include a variety of spacecraft equipped with specific instruments for various scientific and technological missions. These include communications satellites like Starlink; space stations such as the ISS; scientific satellites like the Hubble; Earth observation satellites from companies like Planet Labs, Umbra, and HawkEye 360; GPS; miniature CubeSats for education and research; and military/defense satellites.

Not visible in the next 10 days
Identifier
46580, 2020-070BA
Orbit
Decayed
Country
Flag of USUS
Related business
Manufacturer
SpaceX/Seattle
Mission
Decayed Commercial Communications
Bus & Motor
STARLINK, Unknown motor
Mass
260 kg wet, ~248 kg dry
Launch date (UTC)
2020-10-06 (5 years ago)
Launch vehicle
FALCON 9
Launch site
Air Force Eastern Test Range (AFETR)
Object type
Payload
Rocket body
Debris
Shape & HBR
Box + 1 Pan, 10.1 m
Radar Cross Section
13.562 m², Large (>1 m²)

Expand to show TLE details & history
Last TLE update: 4 months ago

TLE from 4 months ago
0 STARLINK-1708
1 46580U 20070BA  25163.77838052  .13110756  12537-4  41043-3 0  9990
2 46580  53.0147 234.7275 0004616 302.2197 161.1944 16.44781409259855
Epoch: 2025-06-12T18:40Z
TLE epoch observation values (Epoch: 2025-06-12T18:40:52.076Z)
Latitude
51.13865°
Longitude
164.84331°
Altitude
161.98 km
Speed
7.814 km/s
True Right ascension
23h 05m 36s
True Declination
50° 57' 19"
Sunlit
Object was in daylight at epoch
Visualization orbit readout
Latitude
Unknown
Longitude
Unknown
Altitude
Unknown
Speed
Unknown
Apparent Right ascension
Unknown
Apparent Declination
Unknown
Sunlit
N/A
Visualization observer readout
Local Sidereal Time
12:51:14
Azimuth
Unknown
Elevation
Unknown
Doppler factor
Unknown
Orbital elements
Apogee altitude
156.422 km
Perigee altitude
150.392 km
Semi-major axis
6,531.544 km
Eccentricity
0.00046
Inclination
53.0147°
RAAN
234.7275°
Arg. of periapsis
302.2197°
True anomaly
161.21144°
Mean anomaly
161.1944°
Eccentric anomaly
161.20292°
Mean motion
4.11168 °/min
Orbital period
87.56 mins
BSTAR
0.00041043
Loading maneuver chart data...
Computing Atmospheric mass density...
Loading historical data...
Loading historical data...
Loading historical data...
Loading historical data...
Loading historical data...
Loading historical data...
Loading historical data...

Documentation

Showing up to 5 results
|